Wind_Speed
19 19 22 24 25 24 24 24 23 21 19 19 19 17 15 13 12 11 10 10 10 9 9 9 10 11 12 13 15 17 18 19 22 24 25 26 27 28 30 31 31 31 31 31 30 30 30 29 29 28 26 24 23 22 21 22 24 25 26 26 27 26 24 21 19 15 12 13 12 13 16 17 18 19 20 20 21 22 24 25 25 24 22 21 20
20 20 22 24 25 25 25 24 24 22 21 20 18 16 14 13 13 12 12 11 10 10 10 10 11 13 14 15 17 18 20 21 23 26 28 29 29 31 31 32 32 32 32 32 32 32 31 30 30 30 28 24 23 22 22 24 25 24 25 28 29 29 27 23 20 15 12 13 14 14 16 18 18 19 21 20 20 22 24 25 25 25 25 24 23
20 21 23 24 25 25 25 25 25 24 22 21 18 16 14 13 13 13 12 11 11 10 10 11 12 15 16 17 17 19 20 22 24 26 29 31 32 33 34 34 33 34 33 32 33 33 32 31 31 31 29 26 23 22 23 25 25 23 24 27 29 30 28 24 20 17 15 14 14 16 17 18 19 19 21 22 22 23 24 24 25 25 24 25 25
21 22 24 24 25 26 26 25 26 25 24 21 18 16 15 15 14 13 13 12 12 11 11 11 13 15 17 18 19 21 22 24 26 28 30 32 34 35 36 36 35 35 35 34 34 34 33 33 32 32 30 27 25 23 25 27 26 24 24 26 29 30 29 26 23 21 19 17 15 17 18 20 20 21 22 24 24 24 25 25 25 25 24 25 25
23 23 24 25 26 27 26 26 26 26 24 21 19 17 16 16 15 14 13 12 12 12 12 13 14 15 17 19 21 23 25 26 28 30 32 34 36 37 37 38 37 36 36 36 36 35 33 33 33 32 31 29 26 25 26 28 27 27 26 25 27 30 29 27 24 23 22 19 17 17 19 20 20 21 23 24 24 24 25 25 25 25 25 25 26
25 24 24 26 27 26 26 26 25 25 23 21 19 18 17 16 16 15 14 13 13 14 14 15 15 16 18 20 22 24 26 28 30 31 32 34 37 38 38 38 37 36 36 36 37 35 33 33 33 33 31 29 27 26 28 28 29 30 28 24 25 29 30 29 27 25 22 20 19 19 20 21 22 21 23 24 25 25 25 26 25 24 25 26 26
27 26 25 25 26 26 26 25 24 23 22 21 20 19 18 17 16 15 14 14 14 14 16 17 17 19 21 23 25 27 28 30 31 32 34 36 38 38 39 38 37 36 36 37 36 34 32 32 32 32 31 29 27 28 29 30 31 32 29 25 24 27 30 31 30 27 23 21 21 21 22 22 23 23 23 24 25 26 27 28 26 24 25 27 28
29 28 27 26 26 25 24 23 23 23 22 21 21 20 19 18 17 17 16 15 15 16 18 19 21 22 23 25 27 29 30 31 31 33 35 37 38 38 38 38 36 35 35 36 35 33 32 32 32 32 30 28 28 29 30 31 31 31 29 25 24 26 28 31 31 29 27 26 25 25 26 26 24 23 23 24 26 27 28 30 30 27 27 28 29
30 30 29 28 27 24 23 23 23 23 22 22 22 22 20 19 19 18 18 16 16 18 20 22 22 23 24 25 27 28 29 29 30 32 34 36 38 37 35 35 35 33 33 33 33 32 31 32 32 30 28 28 29 30 32 32 31 30 29 26 23 24 27 30 32 32 30 30 29 29 31 29 25 24 25 25 27 29 29 30 31 30 31 31 30
30 30 30 30 28 25 24 24 23 23 23 24 23 23 22 21 20 20 19 19 19 20 21 22 22 23 24 25 26 26 26 25 26 28 32 35 37 34 32 32 32 32 31 31 33 33 32 32 32 30 28 29 30 31 32 32 31 31 30 26 23 24 28 30 31 32 33 33 33 34 34 31 26 25 26 27 29 31 31 31 32 32 33 34 32
28 28 28 29 29 27 25 25 24 23 23 23 24 23 22 22 21 22 22 21 21 21 22 22 23 23 24 24 22 21 20 21 23 27 31 35 35 33 31 30 29 30 30 32 35 35 33 33 32 30 30 30 31 32 31 30 31 32 29 25 23 25 28 30 31 31 33 34 35 34 33 31 28 28 28 28 30 32 33 33 34 35 35 36 35
26 26 25 26 28 28 27 27 26 24 24 23 23 22 22 22 23 23 23 23 22 22 23 24 24 24 23 20 17 16 17 20 24 28 31 35 36 34 31 29 29 30 30 32 35 34 32 32 32 31 29 28 28 29 29 29 31 30 27 23 23 25 28 30 30 31 32 34 34 33 31 30 31 31 29 28 30 33 34 33 34 35 36 36 37
25 24 23 23 26 27 28 28 27 26 25 24 23 23 22 23 23 24 24 24 24 24 25 25 25 24 20 16 13 15 19 24 29 33 34 35 36 34 30 29 30 31 31 31 33 32 29 28 28 27 25 24 25 26 27 30 30 27 24 22 22 24 28 30 30 31 32 33 35 34 31 31 32 30 28 30 32 34 34 34 34 35 36 36 36
25 24 23 22 24 26 27 29 29 28 27 27 26 25 25 25 25 25 25 25 25 26 25 25 24 21 17 13 13 18 24 30 36 41 39 36 36 34 30 30 32 31 31 31 31 28 23 22 23 23 20 20 23 25 28 28 26 23 22 21 22 24 27 29 29 30 32 33 34 32 30 30 31 30 30 33 35 35 34 35 35 35 36 36 36
26 25 23 22 23 25 27 29 30 29 29 29 29 28 28 28 27 26 26 27 26 25 25 24 21 17 14 14 17 25 33 37 42 45 42 37 35 34 31 30 31 29 30 31 28 23 19 20 22 21 18 19 22 24 25 24 23 21 21 21 22 24 26 27 29 32 34 33 32 31 30 30 31 32 33 35 35 35 35 36 36 36 37 37 36
28 27 25 23 23 25 27 29 30 31 31 30 29 29 29 28 27 27 28 27 26 25 23 20 16 14 13 16 24 31 36 38 41 45 42 37 35 33 29 26 25 26 28 28 26 23 21 22 23 20 17 17 20 22 23 23 22 21 20 20 21 22 23 27 30 32 31 30 29 30 31 32 33 34 35 35 35 35 36 37 36 36 37 37 36
30 28 27 25 25 26 29 30 32 33 32 30 28 27 27 26 27 28 28 27 25 23 19 17 15 14 15 21 28 31 35 37 39 42 40 36 33 30 25 22 23 24 26 26 26 27 27 24 22 19 16 16 18 21 23 22 21 20 19 18 19 20 23 26 29 29 28 28 29 31 32 33 35 35 35 35 35 35 36 36 35 34 36 36 35
32 31 30 29 28 30 31 33 34 34 32 29 27 26 25 26 27 27 27 26 24 21 20 19 18 17 19 24 27 31 36 38 38 39 37 34 32 26 21 21 23 24 25 25 27 30 28 23 19 16 15 14 16 18 17 16 16 16 17 18 19 21 24 26 27 27 28 29 30 31 32 34 36 37 37 36 35 34 35 35 34 34 35 35 35
34 33 32 32 32 33 34 35 35 35 32 28 27 26 26 27 27 27 27 26 24 23 23 22 20 20 22 25 27 34 40 39 36 36 35 34 31 25 20 20 22 23 25 27 29 30 26 20 15 13 12 11 11 11 11 11 13 15 18 20 21 22 24 25 26 27 28 29 30 31 33 34 36 37 37 35 34 34 35 35 34 35 35 34 33
36 34 35 35 36 36 35 35 35 35 32 28 27 27 28 28 28 29 29 27 26 26 25 22 21 22 24 26 30 37 40 37 34 34 34 32 30 25 20 19 21 25 28 29 29 26 21 16 12 10 9 9 8 9 10 11 14 16 18 20 21 22 23 25 26 27 28 30 31 32 34 35 36 36 35 34 33 33 33 33 32 32 32 32 31
38 37 37 37 38 37 36 36 36 35 32 29 29 30 30 30 31 31 30 28 28 26 24 22 22 24 25 29 33 37 38 34 32 32 32 30 27 24 21 20 22 26 27 25 23 20 15 12 9 8 7 7 8 10 11 13 15 16 18 19 21 22 24 25 27 29 30 31 33 34 35 36 36 35 34 33 33 32 31 30 28 28 29 29 30
40 40 39 38 38 37 36 37 38 36 33 32 32 32 32 33 33 31 29 28 27 24 21 21 22 23 26 29 32 35 36 33 32 31 30 27 24 21 20 19 19 20 20 19 17 14 10 8 7 5 5 7 9 11 12 13 14 16 18 20 22 23 25 27 28 30 31 33 35 36 36 35 34 33 32 31 29 29 28 27 26 26 27 28 29
43 41 40 39 38 37 37 38 39 37 35 33 32 32 34 35 33 30 29 28 25 21 20 20 21 24 27 28 31 35 35 33 31 29 27 24 21 19 17 15 14 14 15 15 12 9 8 7 6 6 8 9 10 11 12 14 16 18 19 21 23 25 26 28 30 31 32 33 34 34 33 32 31 29 28 26 25 25 26 25 24 25 26 26 26
46 44 42 40 39 39 40 41 40 38 35 34 34 35 35 33 31 30 29 26 22 19 19 20 23 25 27 31 36 38 35 31 29 27 23 21 20 18 15 13 12 12 13 11 8 6 6 5 6 8 9 10 10 11 13 15 18 19 21 23 24 26 27 29 30 30 31 31 31 30 28 26 25 23 22 22 22 23 23 23 24 25 25 25 25
48 47 44 42 42 43 45 44 42 39 36 35 35 35 33 31 30 28 25 22 19 19 20 23 25 27 31 38 41 36 31 27 25 23 21 20 18 16 14 13 12 12 11 8 5 4 4 5 8 9 10 11 11 13 15 17 19 20 23 24 25 27 28 28 28 28 29 29 28 25 21 20 19 19 20 20 21 23 23 23 23 24 26 26 24
47 48 46 46 46 47 47 46 42 38 36 35 33 31 30 29 27 23 20 18 18 20 23 27 29 32 36 38 35 29 25 23 22 20 19 18 16 15 14 13 11 11 9 6 4 5 6 8 9 11 12 13 13 15 17 18 20 21 23 25 26 26 26 26 26 27 27 26 23 20 18 17 17 18 19 20 22 23 24 23 22 23 25 25 23
46 48 48 48 48 47 45 42 38 35 34 33 32 31 29 25 22 19 18 19 21 24 26 29 31 32 32 29 26 23 21 20 19 18 17 16 15 14 12 11 9 9 8 5 6 7 9 10 11 13 14 15 15 17 18 20 21 22 24 25 25 24 24 24 25 25 24 22 20 18 17 16 16 17 19 20 21 22 23 23 22 23 24 24 23
48 50 50 48 45 42 38 35 34 34 34 33 31 28 24 21 18 18 19 21 24 25 27 28 28 27 25 23 21 19 18 17 16 15 14 13 12 11 9 8 8 8 7 7 8 10 10 11 13 14 15 16 17 18 20 21 22 23 24 24 24 23 23 23 23 22 20 18 17 16 16 16 17 18 19 20 21 22 22 23 23 24 24 23 23
49 46 44 40 37 34 34 33 33 33 31 29 26 22 20 19 19 20 21 22 23 24 24 24 24 23 22 20 19 17 15 14 13 13 12 11 10 9 8 8 9 9 9 10 10 11 11 12 14 15 15 17 18 20 21 22 23 23 23 22 22 23 24 24 23 21 20 19 17 18 19 19 20 20 21 22 22 22 22 23 23 24 23 22 22
39 34 32 32 32 34 34 33 30 27 25 22 20 19 19 19 19 19 19 20 21 20 20 20 20 19 19 18 16 15 14 12 12 11 10 10 9 9 9 10 10 10 10 11 11 11 12 13 14 15 16 18 19 21 24 25 24 23 21 21 22 23 25 25 23 22 21 21 19 19 21 22 23 24 24 24 23 22 22 23 23 23 22 22 22
29 27 29 32 33 32 30 27 24 22 20 19 18 18 18 17 17 18 19 20 19 19 19 19 17 16 16 15 14 13 11 10 10 10 10 10 10 11 11 11 11 11 11 11 11 12 13 15 16 16 17 19 21 23 25 26 26 24 23 23 24 24 26 27 25 23 22 21 20 21 22 24 26 26 26 25 24 22 22 22 22 22 22 22 23
28 31 31 30 28 25 23 20 19 18 18 17 17 16 16 17 18 18 19 19 18 18 18 18 15 14 14 14 12 11 9 9 9 10 11 12 13 13 13 12 12 12 12 12 12 13 15 16 17 18 19 21 23 25 26 26 26 25 26 27 27 27 27 28 27 25 23 22 20 21 22 24 26 26 26 25 24 22 22 22 21 21 21 22 23
26 25 23 23 22 20 18 16 15 15 15 15 16 16 17 18 19 18 17 17 16 16 16 15 14 14 13 11 9 9 9 9 10 10 11 13 13 13 13 12 12 13 13 14 15 15 16 17 18 19 21 23 24 25 25 25 25 24 25 26 27 27 28 28 27 24 23 23 23 22 22 23 24 24 24 24 23 22 22 21 20 21 22 22 22
21 19 20 20 18 15 15 14 14 15 15 16 16 17 17 17 17 16 15 15 15 14 14 13 13 12 11 9 9 9 9 9 10 10 11 12 12 12 12 13 14 15 15 16 16 16 17 18 19 20 22 23 23 23 23 23 23 23 23 24 26 26 27 27 26 23 22 24 25 23 21 22 22 22 22 22 22 22 21 20 20 21 22 22 22
21 20 20 18 16 15 15 15 15 15 15 16 16 15 15 14 14 14 14 14 13 13 12 12 12 10 9 9 9 9 9 9 9 10 11 12 13 13 14 14 15 16 17 17 17 17 18 19 20 22 23 24 23 22 21 21 22 22 22 23 25 26 26 25 24 23 22 24 24 23 22 21 21 21 21 21 21 21 20 19 20 20 21 22 21
19 19 18 16 15 15 15 14 14 14 14 14 13 12 12 12 12 13 13 12 11 12 12 12 10 9 8 8 9 8 9 10 11 12 13 13 14 14 15 15 17 17 18 18 18 18 19 21 22 23 23 22 22 21 20 20 21 21 21 21 23 23 23 23 23 22 21 22 21 21 20 20 20 20 21 21 21 20 19 19 19 19 20 20 20
17 17 17 16 15 15 14 12 12 11 11 12 11 11 11 12 13 12 11 10 11 12 12 10 9 8 8 9 9 9 10 12 13 14 14 14 15 15 15 17 18 19 19 19 19 20 22 23 23 22 21 20 20 20 20 19 19 18 19 20 21 21 21 21 20 20 20 20 20 19 19 19 19 19 20 20 20 19 18 19 19 18 18 19 19
14 14 14 14 13 11 10 10 10 10 11 12 12 12 12 13 13 12 10 10 12 12 11 9 8 9 9 10 10 11 12 13 14 14 14 14 15 15 17 18 20 20 20 20 20 21 23 23 22 21 20 20 20 20 18 18 18 17 18 19 19 19 19 19 19 18 18 19 20 19 19 18 18 19 19 19 19 18 18 18 18 18 18 18 18
11 10 9 9 8 7 8 9 10 10 11 11 11 12 12 13 13 12 11 12 13 12 10 9 9 9 10 11 11 12 14 14 14 14 14 14 15 17 19 20 21 22 21 21 21 22 22 22 20 19 18 18 18 18 17 16 16 16 16 17 18 17 16 17 17 17 17 18 19 19 18 18 18 18 19 18 18 18 17 17 17 17 17 17 18
7 7 7 7 8 9 11 11 10 11 11 12 14 14 14 14 14 12 11 12 12 12 10 10 10 10 11 11 12 13 14 14 14 14 14 15 17 20 21 21 21 22 23 24 24 23 22 21 19 18 17 17 16 16 15 15 15 15 16 17 17 17 16 17 17 17 17 18 18 18 17 17 17 18 18 17 17 17 16 16 16 17 17 18 18
8 9 8 7 8 10 10 10 11 12 14 15 16 15 15 15 14 12 12 13 13 12 12 11 12 12 12 11 12 13 14 14 15 15 16 18 19 21 21 20 21 22 24 24 24 23 21 20 19 18 17 17 17 16 15 14 14 15 15 16 17 17 17 17 18 18 18 18 17 16 16 16 16 17 16 16 16 16 16 16 16 17 17 17 17
10 10 10 11 11 11 10 10 11 12 13 13 13 14 15 16 15 14 13 13 13 13 13 13 14 14 13 13 14 15 15 16 16 17 18 19 20 20 20 20 20 22 23 23 22 20 19 19 18 17 17 18 17 16 15 14 15 15 15 16 17 17 17 17 18 18 18 18 16 16 15 15 16 16 15 16 16 15 15 15 16 16 16 16 17
14 13 14 14 12 11 10 11 13 13 13 13 13 14 15 17 17 15 14 14 14 15 15 15 15 16 15 15 16 17 18 18 18 19 20 21 20 20 20 20 21 21 21 20 18 17 17 17 16 16 17 18 17 16 16 15 16 16 17 17 17 18 18 18 18 18 18 17 16 16 15 15 15 15 14 15 15 15 15 15 15 15 15 16 16
11 11 11 11 10 11 13 15 14 14 13 12 12 13 14 16 17 16 16 16 16 16 15 16 17 18 18 18 18 19 21 21 22 22 23 22 21 20 20 20 21 20 19 18 17 17 17 17 16 17 18 18 16 16 16 17 17 18 18 18 18 19 19 18 18 18 18 17 16 15 14 14 14 14 14 14 14 14 14 15 14 14 14 15 15
11 11 13 14 14 15 16 15 14 13 12 10 10 10 11 13 15 16 16 17 17 17 18 18 20 21 20 19 20 21 23 24 24 25 26 25 23 21 20 20 20 19 18 18 17 16 16 16 16 17 18 16 15 15 16 17 18 19 19 20 20 20 19 18 18 18 18 17 16 14 14 13 13 13 13 14 14 14 14 14 14 13 13 14 14
15 15 16 16 16 16 16 14 13 13 12 10 10 10 11 13 15 16 16 17 19 20 21 22 22 22 21 20 20 22 24 25 26 26 26 25 23 22 21 20 19 18 18 17 16 15 14 14 14 14 15 14 14 14 16 17 18 19 19 21 22 21 20 19 18 18 17 16 15 13 13 13 13 13 13 13 13 13 14 14 13 13 12 12 13
18 18 18 19 19 19 17 15 14 14 14 13 13 12 13 15 16 16 17 19 21 22 22 22 22 22 21 20 21 24 26 28 28 26 25 24 23 22 22 21 19 19 20 19 16 14 13 12 11 13 14 15 15 16 17 18 19 18 18 19 21 22 20 19 18 17 16 15 14 13 12 12 12 12 13 13 13 13 13 13 12 12 12 12 12
19 18 18 18 18 17 15 14 14 15 15 14 14 14 15 16 16 17 17 19 20 21 20 21 22 23 23 23 24 26 28 28 26 23 21 22 22 21 21 20 19 19 20 20 19 17 15 14 13 13 15 16 17 17 18 19 19 19 18 19 20 21 19 18 17 16 16 15 13 12 12 12 12 12 12 13 13 13 13 13 12 11 11 11 12
19 18 17 18 18 16 15 15 16 16 15 14 14 15 16 16 16 16 16 17 19 19 20 22 24 24 23 23 24 24 24 24 22 19 16 17 18 19 19 20 20 20 20 20 20 19 18 15 13 13 14 15 16 17 19 20 19 19 18 19 19 18 17 17 16 16 15 14 13 12 11 11 12 12 12 13 13 13 13 13 12 11 11 11 12
19 20 21 21 21 19 18 17 18 18 16 15 15 16 16 15 15 15 15 16 18 19 20 21 23 22 20 19 19 20 20 19 17 15 13 13 13 14 15 17 18 18 18 18 18 18 17 15 13 13 14 15 16 17 19 20 20 19 18 18 17 17 16 16 16 15 15 14 13 12 11 11 12 12 12 13 13 12 13 12 12 12 11 11 12
16 17 17 17 16 15 14 14 14 15 16 15 16 17 17 15 15 15 16 18 19 20 21 22 22 21 19 18 19 20 19 18 16 16 15 14 14 14 13 13 14 15 15 15 15 15 15 15 14 14 15 16 17 17 19 20 20 19 18 17 16 16 16 16 16 16 15 14 13 12 12 11 11 12 13 13 13 13 13 12 12 12 12 12 13
Wind_Direction
219 218 214 214 215 216 214 211 212 213 212 214 216 216 216 217 224 230 235 239 242 251 263 271 281 287 286 286 288 291 295 298 298 299 301 302 304 306 309 313 315 314 313 313 314 316 320 322 322 322 323 322 317 309 304 305 304 300 297 296 293 289 287 288 290 287 285 288 291 295 298 302 305 306 304 302 303 306 311 315 316 313 309 304 300
217 217 214 212 214 216 215 213 213 213 214 216 217 219 221 224 229 234 241 250 256 261 271 280 286 291 292 293 295 297 299 301 301 301 302 301 301 301 304 306 309 312 312 311 310 311 313 316 319 319 319 319 314 305 302 306 308 304 300 299 295 288 283 283 284 280 276 279 284 289 291 294 298 301 300 299 299 303 309 312 312 311 308 306 302
217 219 217 213 214 216 216 214 214 215 217 219 220 222 226 231 237 241 247 256 264 269 277 284 287 289 292 295 298 300 302 304 304 304 304 303 301 299 300 301 304 307 309 308 307 308 309 310 313 314 314 314 309 300 297 302 305 306 304 303 298 288 281 279 276 269 265 267 276 285 288 291 296 300 300 299 301 304 307 308 308 306 303 301 298
218 219 219 216 215 216 217 216 216 218 220 222 223 225 230 237 242 247 252 257 265 273 279 281 283 286 289 293 298 301 303 304 304 305 305 304 302 300 299 300 302 305 307 307 306 307 307 307 307 308 308 309 304 296 294 298 301 301 302 303 299 288 279 275 272 269 268 269 275 286 291 295 300 302 300 300 301 303 305 306 304 302 300 298 295
219 218 219 218 217 218 219 218 217 219 222 224 226 228 232 238 244 251 254 258 265 271 276 279 281 284 288 293 296 299 301 303 303 303 304 303 302 300 300 300 302 304 306 307 306 305 305 305 303 303 304 305 302 295 291 293 297 301 299 297 295 287 277 274 272 271 272 274 278 285 292 296 300 303 302 299 300 301 302 302 300 299 299 298 296
219 219 220 221 221 221 221 221 220 221 223 225 228 230 234 238 243 249 253 258 264 268 274 281 285 288 292 294 296 298 300 301 302 302 302 302 301 300 300 300 302 304 305 304 302 302 302 301 299 299 300 301 299 293 288 288 295 302 301 293 289 284 276 271 270 271 274 279 282 284 287 292 297 301 301 299 300 302 300 297 296 296 298 298 297
221 219 220 222 223 224 224 224 224 224 225 227 229 231 234 238 241 244 249 255 261 268 276 281 285 288 290 291 293 295 297 297 299 300 300 300 300 300 300 301 303 304 302 300 299 298 297 296 295 295 297 297 294 288 284 286 293 300 301 293 284 280 275 271 269 271 274 277 280 283 286 290 294 298 301 301 302 302 300 297 295 295 295 296 297
223 220 221 224 225 224 225 226 227 227 227 228 231 232 233 236 239 241 244 248 256 267 274 278 282 284 285 286 288 290 292 294 296 298 297 298 298 298 300 301 300 299 298 298 297 294 292 291 291 290 291 291 288 282 280 285 291 298 301 293 282 278 277 274 271 271 273 274 278 283 287 290 294 297 300 301 299 298 297 297 297 297 295 295 297
225 221 221 224 226 225 224 225 226 226 226 226 228 231 231 234 238 241 243 246 253 262 268 272 277 278 280 282 284 286 289 292 295 296 296 296 296 297 301 302 299 297 297 297 294 289 286 285 283 282 282 284 282 278 279 285 289 296 299 292 279 273 273 273 272 271 272 275 279 285 290 293 297 298 298 298 297 297 297 297 297 298 298 297 298
227 225 221 222 226 226 224 226 227 225 225 225 225 227 230 232 236 242 245 248 252 256 262 267 270 274 279 282 285 287 290 294 297 297 297 296 296 299 303 303 302 304 302 297 291 285 280 277 277 277 278 280 278 276 280 285 289 294 296 286 275 270 269 270 272 272 274 277 281 287 290 293 297 297 297 298 298 298 298 298 298 298 298 298 297
228 228 224 221 222 225 226 226 226 225 224 224 224 226 227 229 234 241 247 250 252 255 260 264 267 274 281 284 287 291 296 301 301 300 299 298 298 301 302 301 302 302 298 292 289 284 279 277 278 280 282 280 278 280 283 285 287 291 289 278 270 269 269 271 273 274 276 279 284 287 289 291 293 294 297 299 299 299 300 299 298 297 297 297 297
230 230 226 222 220 223 226 227 227 227 225 224 224 225 226 229 234 240 247 251 254 257 260 264 271 278 281 283 288 295 303 308 307 306 305 302 301 301 301 301 299 295 292 291 291 290 287 285 283 282 283 280 278 282 284 284 285 285 280 273 269 268 270 273 275 276 278 282 284 287 292 296 295 296 299 299 297 297 296 295 294 295 296 298 298
233 231 225 221 219 219 222 225 227 228 228 228 228 227 228 231 234 240 246 251 254 257 261 268 276 281 281 282 290 299 306 312 314 313 310 305 302 301 299 298 295 292 292 293 294 293 292 290 286 283 281 279 279 281 283 284 284 279 273 274 275 274 274 275 278 281 284 287 287 290 296 298 297 299 302 299 295 295 294 293 293 294 297 299 299
232 234 227 221 218 216 216 220 223 225 227 229 231 231 232 233 237 241 245 249 253 257 265 272 277 278 278 281 292 305 312 316 316 313 308 302 300 298 296 295 293 292 292 291 291 291 289 288 287 283 279 276 276 277 279 280 278 273 273 276 277 277 276 277 281 287 291 292 292 294 297 297 296 299 299 295 294 296 296 295 295 296 298 298 298
228 232 231 225 221 218 215 215 218 220 223 225 228 230 232 234 238 242 245 249 254 261 269 272 270 268 269 280 301 314 317 315 311 307 303 299 296 295 292 292 292 292 292 292 292 291 287 284 281 278 274 272 272 273 273 271 268 266 269 272 273 274 274 277 283 290 293 294 294 294 295 296 296 297 295 293 294 296 296 295 296 298 298 297 297
224 228 230 227 222 218 216 216 217 218 220 222 224 226 230 233 237 241 245 249 255 263 267 263 258 258 268 291 310 318 318 313 308 305 300 294 291 291 290 288 288 288 288 291 293 292 289 284 278 274 272 269 268 269 267 266 265 265 267 269 271 272 274 279 286 289 290 291 290 291 293 295 295 294 293 293 295 296 295 295 296 298 298 297 299
222 223 226 224 218 215 216 218 219 220 221 221 222 224 228 232 237 242 246 253 259 260 253 243 241 247 270 296 309 315 316 312 306 301 296 289 287 289 288 284 285 286 285 286 289 290 287 281 273 269 268 264 264 267 269 271 272 271 271 272 273 274 278 284 287 287 287 289 291 292 294 295 294 293 293 294 295 295 294 295 297 297 296 297 299
222 221 222 222 219 216 217 219 222 224 224 221 222 225 229 234 241 247 252 256 255 246 233 229 235 248 275 299 312 317 316 310 301 295 291 286 285 286 284 281 282 283 281 280 281 282 281 274 267 266 268 266 267 271 274 276 276 275 277 280 283 285 286 286 286 286 288 291 293 294 294 293 293 294 294 295 296 296 296 297 298 297 297 298 299
223 221 222 223 223 222 221 221 223 227 227 224 224 230 235 239 246 251 254 251 243 234 229 231 242 260 283 301 309 310 311 306 297 292 289 285 285 284 278 276 276 274 274 274 276 278 276 271 265 263 260 258 261 264 266 270 275 280 286 289 291 291 288 286 286 288 291 293 294 294 293 293 293 293 294 295 296 296 296 297 298 297 297 298 299
225 222 223 224 226 227 226 227 229 231 232 230 232 237 240 243 248 250 248 241 234 231 232 238 254 273 289 298 298 299 304 301 293 289 286 284 287 285 277 268 263 263 267 271 274 273 269 260 251 244 240 242 252 261 271 279 285 288 290 291 290 290 289 289 291 293 295 295 295 295 295 295 294 294 295 296 295 294 294 294 294 294 295 296 298
227 225 224 225 228 231 232 234 237 237 237 237 238 240 242 244 246 244 239 235 232 231 235 250 268 284 297 301 298 300 302 297 289 286 284 283 286 288 282 270 260 260 265 267 266 261 251 239 228 222 229 251 270 282 288 290 290 289 289 289 290 291 293 295 296 297 298 297 297 298 297 297 296 296 296 296 294 293 291 291 291 292 294 296 298
228 227 227 227 228 231 233 236 238 239 238 238 238 240 241 241 240 236 233 231 228 230 245 264 278 294 305 306 305 305 302 293 285 284 284 284 287 288 284 272 262 260 260 256 249 237 220 207 203 217 258 282 292 297 296 293 290 290 290 291 293 295 297 298 299 299 299 300 299 299 298 297 296 295 294 292 291 289 289 290 292 295 296 298 299
227 227 227 227 228 229 231 234 235 236 235 236 237 237 237 235 233 230 226 224 226 238 258 273 288 302 309 312 314 309 299 287 284 284 284 286 289 288 283 273 261 254 247 238 226 206 189 194 218 256 283 292 296 297 294 292 292 293 295 296 297 297 299 301 301 302 302 301 299 298 296 295 293 292 290 288 287 286 287 291 294 295 295 295 296
225 226 226 226 225 226 228 230 231 232 233 234 233 232 230 228 225 222 221 223 235 252 268 282 294 302 309 315 315 307 292 281 281 284 285 289 291 288 283 273 260 247 233 219 204 191 198 225 258 278 287 289 291 292 292 294 297 299 300 299 297 298 301 302 303 303 301 300 299 297 297 294 291 288 286 286 286 288 291 294 296 297 297 296 296
223 224 223 223 222 223 224 226 228 229 229 229 228 227 224 220 217 218 223 233 248 262 275 288 296 301 308 311 306 294 281 277 280 282 285 290 291 286 278 267 254 236 218 205 202 217 240 265 279 284 286 288 292 296 297 299 301 301 300 298 298 300 302 303 303 303 302 302 301 299 296 293 291 289 288 289 290 292 295 297 299 299 298 297 296
221 222 221 220 219 219 221 223 225 225 224 222 218 215 213 212 214 220 230 244 259 271 281 289 294 298 303 302 292 278 273 276 277 280 285 288 286 279 269 260 244 222 207 206 233 257 271 281 285 289 293 296 300 302 300 301 301 301 301 302 303 304 305 306 308 309 308 307 304 300 295 291 290 289 290 291 292 294 296 298 300 301 298 297 297
218 220 219 217 216 216 218 221 220 217 213 208 204 203 206 210 216 226 240 256 270 279 285 290 292 294 295 289 277 269 271 274 275 280 284 282 277 271 263 254 236 215 211 236 264 275 285 292 296 298 299 301 303 302 300 301 301 302 304 307 309 310 311 313 314 314 313 310 306 301 297 292 290 291 292 293 294 296 298 301 304 303 299 298 299
217 217 216 214 212 213 215 214 210 207 202 199 199 203 208 215 227 243 257 269 276 280 284 287 288 287 284 278 271 269 272 273 274 277 276 270 266 262 257 248 231 222 235 261 276 286 294 299 301 302 303 303 302 299 299 301 302 305 308 311 313 315 315 317 319 320 318 313 309 308 307 304 303 303 302 302 301 302 304 307 307 304 301 302 303
214 215 214 211 208 206 202 199 198 198 197 197 201 208 219 232 247 258 266 272 275 277 280 281 279 278 276 274 272 270 269 270 271 271 268 264 261 257 251 241 233 237 253 270 280 288 294 298 302 302 300 298 296 297 299 301 304 307 310 314 318 318 317 321 325 325 319 314 314 316 316 316 315 314 313 312 310 308 309 308 305 303 303 303 304
213 213 208 200 194 191 189 189 190 192 195 202 212 224 237 247 253 259 265 270 273 275 276 273 270 270 270 269 267 263 262 264 266 266 264 263 262 259 251 244 245 255 268 277 282 289 295 300 302 302 300 298 297 299 302 304 308 312 315 317 320 319 318 322 326 326 320 317 318 320 319 317 317 317 317 315 313 311 309 305 302 303 303 303 303
205 193 184 180 181 183 186 188 192 198 207 219 230 239 244 245 249 256 264 267 268 270 269 265 262 261 261 260 257 255 257 261 263 263 264 265 266 262 256 256 261 268 275 278 282 290 297 301 302 302 300 297 297 299 304 308 312 317 320 321 321 319 318 322 326 327 324 320 318 317 315 314 314 315 315 313 312 310 306 301 300 303 304 303 304
180 171 170 174 180 185 189 194 202 210 218 226 233 238 240 243 250 257 261 261 261 261 260 258 257 256 255 253 250 251 255 257 259 264 268 268 266 263 261 264 267 270 274 279 285 292 295 297 298 298 297 297 299 304 308 312 314 318 321 321 320 318 318 320 324 324 320 314 312 311 309 309 310 311 311 311 310 306 302 300 302 303 303 304 306
166 168 174 181 186 188 193 200 206 212 219 225 231 235 239 246 253 256 254 253 253 252 252 252 253 251 249 248 251 256 260 261 263 265 265 262 261 260 259 262 266 271 277 282 286 289 292 294 297 297 298 301 305 308 309 309 310 314 316 314 312 312 312 314 317 318 312 306 306 307 306 306 307 307 308 307 305 303 302 303 304 304 305 307 309
168 175 182 186 189 191 196 202 207 215 223 228 233 238 243 247 251 249 245 242 243 244 245 246 244 243 244 250 259 264 268 270 268 264 258 254 253 252 254 260 268 273 279 284 287 290 294 297 298 298 299 302 306 308 308 306 304 304 305 304 304 306 306 307 310 310 305 302 304 306 306 306 305 306 307 305 303 304 305 305 306 307 309 310 312
177 184 190 192 193 195 200 206 214 221 228 233 237 242 244 244 242 236 232 232 235 237 236 234 234 239 247 255 262 265 268 270 268 261 256 254 254 258 264 271 276 280 284 289 293 297 299 299 298 298 300 305 307 306 302 298 296 297 299 300 301 301 302 303 305 303 300 299 302 305 306 306 306 307 307 305 304 305 306 307 309 311 311 313 315
192 198 198 195 196 200 206 212 217 221 228 234 238 238 236 232 228 225 226 228 229 227 227 228 232 241 249 253 257 259 261 263 261 258 258 260 264 271 277 281 283 287 291 295 298 298 296 295 296 298 302 305 304 299 294 291 292 296 299 299 297 297 299 299 299 299 298 298 300 303 305 307 308 308 307 305 305 306 308 311 313 314 315 317 320
200 203 202 203 206 207 207 207 208 213 222 226 226 228 230 229 226 224 225 227 223 221 223 228 234 241 246 248 252 257 261 262 260 260 264 269 273 278 284 286 288 290 293 295 296 295 294 294 297 300 302 300 295 292 290 291 295 298 298 296 296 297 299 298 297 299 302 304 306 307 307 308 309 308 305 304 305 308 312 314 316 318 320 322 324
199 202 204 206 203 199 201 205 209 217 223 221 217 220 225 228 231 231 228 225 224 223 225 229 234 239 242 246 253 259 262 262 263 265 270 275 279 284 287 289 290 291 292 293 293 292 293 294 297 299 298 294 290 290 292 295 298 299 297 295 296 298 300 300 301 305 309 310 311 310 310 310 309 306 303 303 305 310 314 317 318 321 324 325 326
189 191 194 198 201 211 222 227 228 229 226 220 216 216 218 226 235 237 230 224 225 226 227 230 234 238 242 247 255 260 263 265 267 270 274 279 284 288 290 290 291 292 292 291 290 290 291 292 293 294 292 289 288 289 292 295 298 298 296 294 295 297 299 299 301 307 311 313 312 312 312 311 307 303 301 303 307 312 316 319 321 323 325 327 329
198 204 208 221 241 248 242 240 245 246 240 236 234 229 224 228 235 235 228 225 228 229 227 228 233 238 243 251 258 264 268 269 269 271 276 281 286 288 289 289 289 290 291 291 291 292 292 292 292 291 289 288 289 291 294 299 300 298 297 297 298 300 301 302 305 310 314 315 315 314 312 309 303 300 301 304 309 313 318 320 322 323 325 329 332
220 222 226 236 248 249 246 247 251 248 244 245 243 236 231 233 235 231 224 225 231 234 232 232 237 243 251 261 267 268 269 268 269 274 281 285 287 287 286 287 288 288 288 289 290 291 290 290 291 293 294 296 298 298 300 303 301 298 297 297 297 299 301 303 308 312 314 315 316 314 310 306 302 301 303 305 309 315 318 320 320 322 326 330 333
217 229 246 253 256 261 261 254 244 235 232 236 238 236 238 241 242 239 234 233 237 242 243 243 247 251 256 264 268 269 268 269 274 280 286 289 288 285 284 286 288 288 287 287 287 285 283 284 288 293 297 300 300 299 299 299 298 297 297 296 295 297 299 302 306 309 312 313 313 310 306 303 301 301 303 306 310 315 317 317 319 322 327 332 335
239 252 261 260 260 259 249 237 233 231 229 231 233 236 239 243 248 254 255 251 249 248 247 246 249 253 259 265 268 269 270 273 277 283 289 291 288 284 283 285 286 285 286 286 284 278 275 276 280 285 290 294 297 299 299 298 295 295 296 295 293 294 296 299 304 307 308 309 309 307 305 303 301 301 303 306 311 314 316 316 319 322 328 334 336
253 261 258 251 242 231 225 228 234 236 233 234 238 239 241 245 252 258 261 259 256 254 250 249 251 255 260 265 268 268 270 274 278 284 290 290 285 281 280 281 282 282 284 284 279 274 271 271 272 276 280 285 291 294 294 293 292 293 294 294 293 293 296 299 301 302 303 305 306 306 305 302 300 300 302 306 310 314 315 316 319 324 330 335 336
234 233 234 235 232 227 226 230 237 238 236 237 240 241 241 245 251 255 257 259 261 259 256 257 259 260 263 266 268 268 270 275 279 286 290 289 285 282 279 277 276 277 278 278 276 272 268 267 269 273 277 281 286 290 291 291 292 293 293 293 293 294 295 297 297 298 301 304 305 305 304 301 299 300 302 305 309 312 314 316 319 324 330 334 335
226 225 228 232 235 236 236 234 235 239 240 236 233 233 235 238 245 250 252 256 262 264 264 265 267 267 266 265 265 267 271 276 281 286 288 287 285 284 281 278 277 277 276 276 273 268 265 267 271 274 279 284 289 292 292 291 290 290 292 293 293 292 292 293 295 298 300 303 304 303 302 299 298 298 300 303 307 311 313 315 318 323 329 333 335
232 231 233 234 233 234 234 234 235 238 235 228 229 238 241 240 244 249 250 254 261 268 271 272 271 268 266 265 267 271 275 279 282 284 283 280 279 279 278 278 280 280 280 280 279 275 274 278 282 285 290 293 293 292 291 288 285 285 286 286 286 286 289 292 295 297 298 299 301 301 298 295 295 296 297 301 306 309 311 313 316 320 325 328 332
240 239 239 238 232 226 226 232 240 239 231 225 229 237 239 238 244 251 254 257 261 265 266 264 262 262 265 268 271 274 276 278 281 282 278 272 270 269 269 272 275 276 279 283 287 288 288 290 291 291 292 292 291 290 288 285 284 284 283 280 281 285 289 292 293 293 295 297 297 296 294 291 291 292 294 298 303 307 309 311 313 317 320 323 326
246 248 249 247 241 233 230 233 236 236 234 234 237 238 238 241 247 250 251 254 259 262 262 263 266 268 272 273 274 276 279 283 288 290 283 271 263 261 263 268 271 274 277 281 285 287 290 293 297 296 293 290 289 288 285 284 285 285 284 283 284 287 290 290 289 289 291 293 292 291 290 288 288 289 290 294 299 304 306 308 310 312 315 317 320
240 243 246 246 241 233 231 234 236 236 236 238 239 239 240 242 243 244 246 251 256 259 263 267 272 274 274 274 275 277 279 282 284 283 278 270 263 262 266 271 273 274 275 277 278 282 287 292 297 298 295 293 291 287 283 282 283 284 284 286 287 288 287 286 284 284 286 287 287 286 285 284 285 285 286 290 294 299 303 305 307 309 312 314 315
235 238 243 246 240 232 233 240 242 239 237 235 234 237 241 241 241 244 248 251 252 256 260 265 267 268 269 273 276 278 279 281 281 279 279 280 278 276 277 279 278 276 276 276 277 281 287 291 296 297 296 296 294 290 285 283 283 283 285 287 288 288 285 282 281 282 283 283 282 280 279 279 280 281 282 285 290 295 299 302 305 309 312 313 311
Height
3155 3157 3159 3161 3163 3166 3168 3171 3173 3175 3176 3177 3178 3180 3182 3184 3185 3186 3187 3188 3190 3190 3191 3192 3193 3194 3194 3195 3195 3195 3195 3196 3195 3195 3195 3194 3194 3193 3192 3192 3192 3192 3192 3191 3191 3190 3190 3189 3188 3188 3188 3188 3187 3187 3186 3186 3186 3185 3184 3183 3182 3181 3180 3179 3180 3180 3179 3178 3178 3177 3176 3176 3175 3174 3173 3172 3171 3170 3168 3167 3166 3166 3166 3166 3165
3153 3155 3157 3159 3161 3164 3166 3168 3171 3173 3174 3175 3176 3178 3180 3182 3183 3184 3185 3186 3188 3189 3190 3190 3191 3191 3192 3192 3193 3193 3193 3193 3193 3192 3192 3192 3191 3191 3190 3190 3189 3189 3189 3189 3189 3188 3187 3186 3186 3185 3185 3185 3184 3184 3183 3183 3182 3182 3181 3181 3180 3178 3177 3177 3177 3177 3177 3176 3175 3175 3174 3172 3172 3171 3170 3169 3168 3167 3165 3164 3163 3162 3162 3161 3161
3152 3153 3155 3157 3159 3161 3163 3166 3168 3170 3171 3173 3175 3176 3178 3180 3181 3182 3183 3184 3185 3187 3188 3188 3189 3189 3189 3189 3190 3190 3190 3190 3190 3190 3189 3189 3188 3188 3187 3187 3187 3186 3186 3186 3186 3185 3185 3184 3183 3183 3182 3182 3182 3181 3180 3180 3179 3179 3178 3177 3176 3175 3174 3174 3173 3174 3174 3174 3173 3172 3171 3170 3169 3168 3167 3165 3164 3163 3162 3161 3160 3159 3159 3158 3157
3149 3151 3152 3154 3157 3159 3161 3163 3165 3167 3169 3170 3173 3174 3176 3177 3178 3179 3181 3182 3183 3184 3185 3186 3186 3187 3187 3187 3187 3187 3187 3187 3187 3187 3186 3186 3185 3185 3184 3184 3184 3184 3183 3183 3182 3182 3182 3182 3181 3180 3180 3179 3179 3178 3178 3177 3176 3175 3175 3174 3173 3172 3171 3171 3170 3170 3170 3170 3170 3169 3168 3167 3167 3166 3164 3162 3161 3160 3158 3157 3157 3156 3155 3155 3154
3147 3149 3150 3152 3154 3156 3158 3160 3162 3164 3166 3168 3170 3172 3173 3175 3176 3177 3178 3180 3181 3182 3183 3183 3184 3184 3184 3185 3184 3184 3184 3183 3183 3184 3184 3183 3183 3182 3181 3181 3181 3182 3181 3180 3179 3179 3179 3178 3178 3177 3177 3176 3176 3175 3174 3173 3173 3173 3172 3171 3170 3170 3169 3168 3167 3166 3166 3167 3167 3166 3165 3164 3164 3163 3161 3159 3158 3157 3156 3155 3153 3153 3152 3151 3150
3144 3146 3148 3149 3151 3153 3155 3157 3159 3161 3164 3166 3168 3169 3171 3172 3174 3175 3176 3177 3178 3179 3180 3180 3181 3181 3182 3182 3182 3182 3181 3181 3180 3180 3180 3180 3179 3179 3178 3178 3178 3178 3178 3177 3176 3176 3175 3175 3174 3173 3173 3173 3173 3172 3171 3170 3170 3170 3169 3168 3168 3167 3167 3166 3165 3164 3164 3163 3163 3162 3162 3160 3159 3159 3158 3156 3154 3153 3153 3152 3151 3150 3149 3148 3147
3140 3143 3145 3146 3148 3151 3153 3155 3157 3159 3161 3164 3165 3167 3168 3170 3171 3172 3174 3175 3176 3176 3177 3177 3178 3179 3179 3179 3179 3179 3178 3178 3177 3177 3176 3176 3176 3176 3175 3174 3174 3174 3173 3173 3173 3173 3172 3171 3171 3170 3170 3170 3170 3169 3168 3167 3167 3167 3166 3165 3165 3164 3164 3164 3163 3162 3161 3160 3159 3159 3158 3158 3156 3155 3154 3152 3150 3149 3148 3147 3147 3147 3146 3144 3143
3137 3139 3142 3144 3145 3148 3150 3152 3154 3157 3159 3161 3163 3164 3166 3167 3169 3170 3171 3172 3173 3174 3174 3175 3176 3176 3176 3176 3176 3176 3175 3175 3174 3173 3172 3172 3172 3172 3172 3171 3170 3169 3169 3168 3168 3168 3168 3167 3167 3166 3166 3167 3167 3165 3165 3164 3164 3163 3162 3162 3161 3161 3161 3161 3161 3160 3158 3157 3156 3156 3155 3155 3154 3152 3151 3149 3147 3146 3145 3143 3141 3142 3141 3140 3139
3134 3136 3138 3140 3142 3146 3148 3150 3152 3154 3156 3158 3160 3161 3163 3165 3166 3167 3168 3169 3171 3172 3172 3172 3173 3173 3173 3173 3173 3173 3172 3172 3171 3170 3169 3168 3167 3168 3168 3167 3165 3165 3164 3164 3163 3163 3163 3163 3162 3162 3163 3163 3162 3162 3162 3161 3161 3160 3159 3158 3157 3157 3158 3158 3157 3157 3155 3154 3154 3153 3152 3152 3151 3149 3147 3146 3144 3143 3142 3140 3138 3136 3135 3134 3135
3130 3132 3134 3137 3140 3143 3145 3147 3149 3151 3153 3155 3156 3158 3160 3162 3163 3163 3164 3166 3168 3169 3169 3169 3170 3170 3170 3170 3170 3169 3169 3169 3168 3167 3165 3164 3163 3164 3164 3163 3161 3161 3160 3160 3159 3159 3159 3158 3158 3159 3159 3159 3159 3158 3158 3158 3157 3156 3155 3154 3153 3153 3153 3153 3153 3153 3152 3151 3151 3150 3149 3148 3148 3146 3144 3143 3141 3139 3138 3136 3133 3132 3130 3128 3129
3127 3128 3130 3134 3137 3140 3142 3144 3146 3148 3149 3151 3153 3155 3157 3159 3159 3160 3161 3162 3164 3165 3165 3165 3166 3166 3166 3166 3166 3166 3166 3166 3165 3164 3162 3160 3159 3159 3159 3159 3158 3158 3156 3155 3154 3154 3154 3154 3154 3155 3155 3155 3155 3155 3154 3154 3153 3152 3151 3150 3150 3150 3150 3150 3150 3150 3149 3148 3147 3147 3146 3145 3144 3142 3140 3138 3136 3135 3133 3131 3129 3127 3125 3123 3122
3123 3125 3127 3130 3133 3136 3139 3141 3143 3144 3146 3148 3150 3152 3154 3155 3156 3156 3157 3158 3159 3161 3161 3161 3162 3162 3163 3163 3163 3163 3163 3163 3162 3161 3159 3157 3155 3154 3154 3154 3154 3153 3152 3151 3150 3150 3150 3150 3150 3151 3151 3151 3151 3150 3150 3150 3149 3149 3147 3147 3146 3146 3147 3146 3146 3146 3145 3144 3143 3143 3143 3141 3139 3138 3136 3134 3132 3130 3129 3127 3125 3123 3121 3119 3117
3119 3121 3124 3126 3129 3132 3135 3137 3139 3141 3143 3145 3147 3148 3150 3151 3152 3153 3153 3154 3155 3156 3157 3157 3158 3159 3160 3160 3160 3160 3160 3159 3158 3157 3155 3153 3151 3150 3150 3150 3149 3149 3149 3148 3146 3147 3147 3146 3146 3147 3147 3147 3147 3146 3146 3146 3145 3144 3144 3143 3143 3143 3143 3143 3143 3143 3142 3140 3139 3139 3139 3136 3134 3133 3132 3129 3127 3126 3124 3123 3121 3119 3117 3115 3113
3116 3117 3120 3122 3125 3128 3131 3133 3135 3137 3139 3141 3142 3144 3146 3147 3148 3149 3150 3151 3152 3153 3154 3155 3155 3155 3156 3156 3157 3157 3156 3155 3154 3153 3151 3149 3147 3146 3146 3145 3144 3144 3144 3143 3143 3144 3144 3143 3143 3143 3143 3143 3143 3142 3142 3142 3141 3140 3140 3139 3140 3140 3140 3140 3140 3139 3138 3137 3135 3134 3134 3132 3129 3128 3127 3125 3123 3121 3119 3117 3115 3114 3112 3110 3109
3112 3114 3116 3118 3121 3123 3126 3129 3131 3133 3135 3137 3138 3140 3141 3143 3144 3145 3146 3147 3149 3150 3151 3151 3151 3152 3152 3152 3152 3152 3151 3150 3149 3147 3146 3144 3143 3142 3142 3141 3140 3140 3140 3139 3140 3140 3140 3139 3139 3139 3139 3138 3139 3138 3138 3137 3137 3136 3136 3136 3137 3137 3138 3138 3137 3136 3134 3133 3131 3130 3129 3127 3125 3124 3122 3121 3119 3117 3114 3112 3110 3109 3107 3105 3105
3108 3110 3112 3114 3116 3119 3121 3124 3127 3129 3130 3132 3134 3136 3137 3139 3141 3142 3143 3144 3146 3147 3148 3148 3148 3148 3148 3148 3148 3147 3146 3145 3143 3142 3141 3140 3138 3138 3138 3138 3137 3137 3136 3136 3136 3136 3135 3135 3135 3135 3135 3135 3135 3134 3133 3133 3133 3133 3133 3133 3133 3134 3135 3135 3134 3132 3131 3129 3128 3126 3124 3123 3121 3120 3118 3117 3115 3113 3110 3107 3107 3105 3102 3100 3100
3104 3106 3108 3110 3112 3114 3117 3119 3121 3123 3125 3128 3130 3132 3134 3136 3137 3138 3140 3142 3143 3144 3144 3145 3145 3146 3146 3145 3144 3143 3142 3141 3140 3138 3137 3135 3134 3134 3134 3134 3134 3133 3133 3133 3132 3132 3132 3132 3132 3132 3132 3132 3131 3130 3130 3130 3130 3130 3130 3130 3131 3131 3132 3131 3130 3128 3127 3125 3124 3122 3120 3118 3117 3115 3114 3113 3111 3108 3105 3103 3103 3101 3099 3097 3096
3099 3102 3103 3105 3108 3110 3112 3114 3116 3118 3121 3124 3127 3129 3132 3133 3134 3135 3137 3138 3140 3140 3141 3141 3142 3143 3143 3143 3142 3141 3140 3139 3137 3135 3133 3132 3131 3130 3131 3131 3131 3131 3131 3130 3129 3129 3129 3128 3128 3128 3128 3128 3128 3128 3127 3127 3127 3127 3127 3127 3128 3128 3128 3128 3126 3124 3123 3122 3120 3118 3117 3115 3113 3111 3109 3108 3106 3104 3101 3099 3098 3096 3094 3093 3092
3095 3097 3099 3101 3103 3105 3107 3109 3111 3114 3117 3121 3124 3126 3128 3130 3131 3133 3133 3134 3135 3136 3137 3138 3139 3140 3140 3139 3138 3138 3137 3136 3134 3132 3130 3128 3127 3127 3127 3127 3128 3128 3127 3127 3126 3126 3125 3125 3125 3125 3125 3125 3125 3125 3125 3125 3125 3125 3125 3124 3125 3125 3124 3124 3122 3121 3119 3118 3117 3115 3113 3112 3109 3107 3105 3104 3102 3100 3097 3095 3094 3092 3090 3089 3088
3090 3093 3094 3096 3098 3100 3102 3105 3107 3109 3113 3117 3120 3122 3124 3126 3128 3128 3128 3129 3131 3132 3134 3135 3136 3136 3136 3135 3134 3133 3133 3131 3129 3128 3126 3124 3124 3123 3123 3124 3125 3125 3124 3123 3123 3122 3122 3121 3122 3122 3123 3123 3123 3123 3123 3122 3122 3122 3122 3121 3121 3121 3120 3119 3118 3117 3115 3114 3113 3111 3109 3107 3105 3103 3101 3099 3098 3096 3094 3093 3091 3089 3087 3085 3084
3085 3087 3089 3091 3093 3095 3098 3100 3102 3105 3109 3113 3116 3118 3120 3121 3122 3123 3124 3126 3128 3129 3131 3132 3132 3132 3132 3131 3130 3129 3128 3127 3125 3124 3122 3121 3121 3120 3120 3120 3121 3121 3120 3120 3119 3119 3119 3119 3119 3120 3120 3121 3121 3121 3120 3120 3120 3119 3119 3118 3118 3117 3117 3115 3114 3112 3111 3109 3107 3106 3104 3102 3100 3098 3096 3095 3093 3092 3091 3090 3088 3086 3084 3082 3081
3079 3081 3083 3085 3087 3090 3093 3095 3097 3101 3105 3108 3111 3113 3115 3116 3117 3119 3121 3123 3125 3126 3127 3128 3128 3128 3128 3127 3126 3124 3123 3123 3121 3120 3119 3118 3117 3117 3117 3116 3116 3116 3116 3116 3117 3117 3116 3117 3117 3117 3118 3118 3118 3118 3118 3117 3117 3117 3116 3116 3115 3114 3113 3111 3110 3108 3106 3104 3102 3100 3099 3097 3095 3094 3092 3091 3089 3088 3086 3085 3084 3083 3081 3080 3078
3072 3075 3077 3079 3082 3085 3087 3089 3092 3096 3100 3103 3106 3108 3109 3111 3113 3116 3118 3120 3121 3122 3123 3123 3124 3123 3123 3122 3121 3121 3120 3119 3117 3116 3115 3115 3114 3113 3113 3113 3113 3113 3113 3114 3114 3114 3114 3114 3115 3115 3115 3115 3114 3115 3115 3115 3114 3114 3113 3113 3112 3111 3109 3108 3106 3104 3102 3100 3098 3096 3094 3092 3090 3089 3088 3087 3086 3084 3083 3082 3081 3080 3078 3077 3076
3065 3068 3071 3073 3076 3079 3082 3084 3088 3092 3095 3098 3100 3102 3104 3107 3110 3112 3114 3116 3117 3118 3119 3119 3118 3118 3118 3117 3116 3117 3116 3115 3114 3113 3112 3111 3110 3109 3109 3109 3110 3111 3111 3111 3111 3111 3111 3112 3112 3112 3112 3112 3112 3112 3112 3112 3111 3111 3110 3109 3108 3107 3105 3103 3102 3100 3098 3095 3093 3091 3090 3088 3086 3085 3084 3083 3082 3081 3080 3079 3078 3076 3075 3074 3073
3058 3061 3064 3067 3071 3074 3077 3080 3084 3088 3091 3094 3095 3097 3101 3104 3107 3109 3111 3112 3114 3114 3114 3114 3114 3113 3112 3112 3112 3112 3112 3111 3111 3109 3108 3108 3107 3107 3107 3107 3108 3109 3109 3109 3108 3109 3109 3110 3110 3110 3109 3109 3109 3109 3109 3109 3109 3108 3107 3106 3105 3103 3101 3099 3098 3096 3093 3091 3089 3087 3086 3084 3082 3081 3080 3079 3078 3077 3076 3075 3074 3073 3071 3070 3069
3051 3054 3058 3061 3065 3069 3072 3076 3080 3084 3087 3090 3092 3095 3098 3101 3103 3105 3107 3108 3109 3109 3109 3109 3109 3108 3107 3108 3108 3107 3107 3107 3107 3106 3106 3105 3105 3105 3105 3106 3107 3107 3107 3107 3107 3108 3108 3108 3108 3107 3107 3107 3107 3107 3107 3106 3106 3105 3104 3102 3101 3099 3097 3095 3094 3091 3089 3087 3085 3084 3082 3081 3080 3079 3077 3076 3075 3074 3072 3072 3071 3070 3068 3066 3066
3044 3048 3051 3055 3060 3065 3070 3075 3078 3081 3083 3086 3089 3092 3095 3097 3099 3101 3102 3104 3104 3105 3105 3105 3104 3103 3102 3103 3103 3103 3104 3104 3104 3103 3103 3103 3103 3103 3104 3104 3105 3105 3105 3106 3106 3106 3107 3106 3106 3105 3104 3104 3104 3104 3104 3103 3103 3101 3100 3098 3097 3095 3093 3092 3090 3088 3086 3084 3082 3081 3080 3079 3077 3076 3075 3074 3072 3071 3069 3068 3067 3066 3064 3063 3061
3038 3041 3046 3051 3058 3064 3069 3072 3075 3078 3080 3083 3086 3089 3091 3093 3095 3097 3099 3100 3100 3101 3100 3100 3099 3098 3098 3099 3099 3100 3100 3101 3101 3101 3101 3101 3101 3102 3102 3102 3103 3103 3104 3104 3104 3105 3104 3104 3103 3103 3102 3102 3102 3102 3101 3100 3099 3098 3096 3095 3093 3091 3090 3089 3087 3085 3083 3082 3080 3078 3077 3076 3075 3073 3072 3071 3069 3068 3066 3064 3063 3062 3061 3059 3057
3036 3042 3048 3053 3058 3062 3066 3070 3073 3076 3078 3081 3084 3086 3088 3090 3092 3093 3095 3095 3095 3096 3095 3095 3095 3095 3095 3095 3096 3096 3097 3097 3098 3098 3098 3099 3099 3099 3100 3100 3101 3101 3102 3102 3102 3102 3102 3102 3101 3101 3100 3100 3099 3098 3097 3096 3095 3095 3093 3091 3089 3088 3086 3085 3084 3082 3080 3078 3077 3075 3074 3072 3071 3070 3069 3068 3066 3065 3063 3062 3061 3059 3058 3056 3054
3042 3048 3053 3056 3059 3061 3065 3068 3072 3074 3077 3079 3081 3083 3085 3087 3088 3089 3090 3090 3090 3090 3090 3091 3092 3093 3092 3092 3092 3093 3094 3094 3095 3095 3096 3096 3097 3097 3098 3098 3098 3099 3100 3100 3100 3100 3099 3099 3099 3098 3097 3097 3096 3095 3093 3092 3091 3091 3090 3088 3087 3085 3083 3082 3081 3079 3077 3075 3073 3072 3071 3069 3068 3067 3066 3064 3063 3062 3060 3059 3058 3056 3054 3053 3051
3046 3050 3054 3057 3060 3062 3065 3068 3070 3073 3075 3077 3078 3080 3082 3083 3084 3085 3085 3085 3085 3086 3086 3087 3088 3089 3089 3089 3090 3090 3091 3091 3092 3093 3094 3094 3095 3095 3095 3096 3096 3097 3097 3097 3097 3097 3097 3096 3096 3095 3094 3094 3093 3092 3091 3089 3087 3086 3085 3084 3083 3081 3080 3078 3077 3076 3074 3072 3071 3070 3068 3067 3066 3064 3063 3062 3060 3059 3058 3057 3055 3053 3052 3050 3049
3049 3052 3054 3057 3060 3062 3064 3066 3069 3071 3072 3074 3076 3077 3078 3079 3080 3080 3081 3081 3081 3082 3083 3084 3085 3086 3086 3087 3087 3087 3088 3089 3089 3090 3091 3092 3092 3093 3093 3093 3094 3094 3094 3094 3094 3094 3094 3093 3093 3092 3092 3091 3090 3088 3087 3085 3084 3082 3081 3079 3078 3077 3076 3075 3074 3073 3072 3071 3070 3068 3067 3065 3063 3062 3061 3059 3058 3057 3056 3054 3053 3051 3049 3048 3046
3050 3054 3055 3056 3058 3060 3062 3064 3066 3068 3070 3071 3072 3074 3074 3075 3076 3076 3077 3077 3078 3079 3080 3081 3082 3083 3083 3084 3084 3084 3085 3086 3087 3088 3089 3089 3090 3090 3091 3091 3092 3092 3092 3092 3092 3092 3091 3091 3090 3089 3088 3087 3086 3085 3083 3082 3081 3080 3079 3077 3075 3074 3073 3073 3073 3072 3071 3069 3068 3066 3065 3063 3061 3060 3058 3057 3056 3055 3053 3052 3050 3049 3047 3045 3044
3050 3053 3054 3055 3056 3058 3060 3061 3063 3065 3067 3068 3069 3071 3071 3072 3072 3073 3073 3074 3075 3076 3077 3078 3079 3079 3080 3081 3081 3081 3082 3083 3084 3086 3086 3087 3087 3088 3089 3089 3089 3089 3089 3089 3089 3089 3088 3088 3087 3086 3085 3084 3084 3082 3081 3079 3078 3078 3077 3076 3074 3073 3072 3071 3071 3070 3068 3067 3065 3063 3062 3060 3059 3058 3056 3055 3054 3052 3051 3049 3048 3046 3045 3043 3041
3048 3050 3051 3052 3054 3055 3057 3058 3060 3062 3063 3065 3066 3067 3068 3069 3070 3070 3071 3072 3073 3074 3074 3075 3076 3077 3077 3078 3078 3078 3079 3080 3082 3083 3084 3084 3085 3086 3086 3087 3086 3086 3086 3086 3085 3085 3085 3084 3084 3083 3082 3081 3081 3080 3078 3077 3076 3075 3075 3074 3072 3071 3070 3069 3068 3067 3066 3064 3062 3061 3059 3058 3056 3055 3054 3053 3051 3050 3049 3048 3046 3044 3042 3040 3039
3046 3047 3048 3049 3051 3052 3054 3055 3056 3058 3059 3061 3062 3064 3065 3067 3068 3069 3070 3070 3071 3071 3072 3073 3074 3074 3075 3075 3075 3076 3078 3079 3080 3081 3081 3082 3082 3083 3083 3083 3083 3083 3083 3083 3082 3082 3081 3081 3081 3080 3080 3079 3077 3076 3075 3074 3074 3073 3072 3071 3070 3069 3068 3067 3066 3064 3063 3062 3060 3058 3057 3055 3054 3053 3052 3050 3049 3048 3047 3046 3044 3042 3040 3038 3036
3043 3044 3045 3046 3048 3049 3051 3052 3053 3055 3056 3057 3059 3061 3063 3065 3067 3068 3069 3070 3070 3070 3070 3071 3072 3072 3073 3073 3074 3075 3076 3077 3078 3079 3079 3080 3080 3080 3081 3081 3080 3080 3080 3080 3080 3079 3078 3078 3077 3077 3077 3076 3074 3073 3072 3072 3071 3071 3070 3068 3067 3066 3065 3064 3063 3062 3061 3059 3057 3056 3054 3053 3051 3050 3049 3048 3047 3046 3045 3044 3042 3040 3038 3036 3035
3040 3041 3042 3043 3045 3047 3048 3050 3052 3053 3054 3055 3056 3058 3060 3063 3065 3067 3068 3069 3069 3069 3069 3070 3070 3071 3071 3072 3073 3074 3075 3076 3076 3077 3078 3078 3078 3078 3079 3078 3078 3078 3078 3078 3077 3076 3075 3075 3075 3074 3073 3072 3071 3070 3070 3069 3068 3068 3067 3066 3065 3064 3063 3062 3061 3059 3058 3056 3055 3053 3052 3051 3049 3049 3048 3046 3045 3044 3043 3042 3040 3039 3037 3035 3033
3037 3038 3039 3041 3043 3045 3047 3048 3049 3051 3052 3053 3054 3056 3059 3061 3064 3065 3067 3067 3067 3067 3068 3068 3069 3069 3070 3071 3071 3072 3073 3074 3074 3075 3076 3076 3076 3076 3076 3076 3075 3075 3074 3074 3074 3074 3073 3072 3072 3072 3071 3070 3069 3068 3067 3066 3066 3065 3064 3063 3063 3062 3061 3060 3058 3057 3056 3054 3053 3051 3050 3049 3048 3047 3046 3045 3044 3043 3041 3040 3038 3037 3035 3034 3032
3035 3037 3038 3040 3041 3043 3044 3046 3048 3049 3050 3051 3052 3054 3057 3060 3062 3063 3065 3065 3065 3066 3066 3067 3067 3068 3069 3069 3070 3071 3071 3072 3072 3073 3073 3074 3074 3073 3073 3073 3072 3071 3070 3070 3070 3070 3069 3069 3069 3068 3068 3067 3067 3065 3064 3064 3063 3062 3061 3060 3059 3059 3058 3057 3056 3054 3053 3052 3050 3049 3048 3047 3046 3045 3044 3043 3042 3041 3040 3038 3037 3035 3034 3032 3030
3033 3035 3037 3038 3040 3041 3043 3044 3045 3047 3048 3048 3049 3051 3054 3056 3059 3061 3062 3063 3063 3063 3064 3065 3066 3066 3067 3067 3068 3068 3069 3069 3070 3070 3071 3071 3071 3070 3070 3069 3069 3068 3067 3067 3067 3066 3066 3065 3065 3064 3063 3063 3063 3062 3061 3061 3060 3059 3059 3058 3057 3056 3055 3054 3052 3051 3050 3049 3048 3047 3046 3045 3044 3043 3042 3041 3040 3039 3038 3037 3035 3034 3032 3031 3029
3031 3033 3035 3037 3038 3040 3041 3041 3043 3045 3047 3048 3048 3050 3051 3052 3055 3057 3059 3061 3061 3061 3062 3062 3063 3063 3064 3064 3065 3065 3066 3066 3066 3067 3067 3067 3067 3067 3066 3066 3065 3064 3064 3064 3064 3064 3064 3063 3062 3061 3060 3059 3059 3059 3059 3058 3057 3057 3056 3056 3055 3054 3053 3052 3050 3049 3049 3048 3046 3045 3044 3043 3042 3042 3041 3040 3039 3038 3037 3035 3034 3032 3031 3029 3028
3030 3032 3033 3034 3035 3037 3039 3040 3041 3043 3045 3046 3048 3049 3050 3050 3051 3053 3055 3057 3058 3059 3059 3060 3060 3060 3060 3061 3061 3062 3062 3062 3062 3063 3063 3063 3063 3063 3062 3062 3062 3061 3061 3061 3061 3062 3061 3061 3060 3059 3058 3057 3057 3056 3056 3055 3055 3054 3054 3053 3052 3051 3050 3050 3049 3048 3047 3045 3044 3043 3042 3041 3040 3040 3039 3038 3037 3037 3035 3034 3033 3031 3030 3028 3026
3028 3029 3031 3032 3034 3036 3038 3039 3040 3041 3043 3044 3046 3047 3048 3048 3049 3050 3052 3053 3054 3055 3056 3057 3057 3058 3058 3058 3058 3058 3058 3058 3058 3058 3058 3059 3059 3059 3059 3059 3058 3058 3058 3058 3058 3059 3059 3058 3058 3057 3056 3055 3055 3054 3053 3053 3052 3052 3051 3051 3050 3049 3048 3048 3047 3045 3044 3043 3042 3041 3040 3039 3039 3038 3037 3036 3036 3035 3034 3033 3031 3030 3028 3027 3025
3027 3028 3029 3031 3033 3036 3037 3038 3039 3040 3041 3043 3044 3045 3046 3047 3047 3048 3049 3049 3050 3051 3053 3054 3054 3054 3055 3055 3055 3055 3054 3054 3054 3054 3054 3054 3054 3055 3056 3056 3055 3056 3056 3055 3055 3055 3055 3055 3054 3053 3052 3052 3052 3052 3051 3051 3050 3050 3049 3048 3047 3046 3046 3045 3044 3043 3042 3040 3039 3039 3038 3037 3037 3036 3035 3035 3034 3033 3032 3031 3030 3028 3027 3026 3025
3026 3027 3028 3030 3032 3034 3035 3036 3037 3038 3039 3041 3042 3043 3044 3045 3045 3046 3046 3047 3047 3048 3049 3050 3050 3050 3051 3051 3052 3051 3051 3051 3051 3051 3050 3049 3049 3050 3051 3051 3052 3052 3053 3053 3053 3053 3052 3052 3051 3050 3049 3049 3050 3050 3049 3048 3048 3047 3046 3045 3044 3043 3042 3042 3041 3040 3039 3038 3037 3036 3036 3035 3035 3034 3034 3033 3033 3032 3031 3030 3028 3027 3026 3025 3024
3025 3026 3027 3029 3030 3031 3032 3033 3035 3036 3037 3039 3039 3040 3041 3042 3043 3044 3045 3045 3045 3045 3045 3046 3046 3046 3047 3048 3048 3048 3047 3046 3046 3047 3046 3046 3045 3046 3046 3047 3048 3048 3048 3048 3049 3049 3048 3048 3047 3047 3046 3046 3046 3047 3046 3045 3044 3044 3044 3042 3041 3040 3039 3039 3038 3037 3036 3035 3035 3034 3034 3033 3033 3032 3032 3032 3031 3030 3029 3028 3027 3026 3025 3024 3023
3024 3025 3026 3027 3028 3029 3030 3031 3032 3034 3035 3036 3037 3038 3039 3040 3041 3042 3043 3043 3043 3042 3043 3043 3043 3043 3043 3044 3044 3044 3043 3042 3042 3043 3042 3042 3042 3042 3043 3043 3044 3045 3044 3044 3044 3044 3044 3044 3044 3044 3044 3043 3043 3043 3042 3041 3041 3041 3040 3039 3038 3037 3037 3036 3036 3034 3034 3033 3032 3032 3031 3031 3031 3030 3030 3030 3030 3029 3028 3027 3026 3025 3024 3023 3022
3024 3024 3025 3026 3026 3027 3027 3028 3030 3031 3033 3034 3035 3036 3037 3038 3039 3039 3040 3041 3040 3040 3039 3039 3039 3039 3040 3040 3040 3040 3039 3039 3038 3039 3039 3038 3039 3039 3040 3040 3041 3041 3041 3041 3040 3040 3040 3040 3041 3041 3041 3040 3040 3039 3039 3038 3038 3037 3037 3036 3035 3035 3034 3033 3033 3032 3031 3030 3030 3030 3029 3029 3029 3029 3028 3028 3028 3027 3026 3026 3025 3024 3023 3022 3021
3022 3023 3023 3024 3024 3024 3025 3026 3027 3029 3031 3033 3033 3034 3035 3036 3036 3037 3037 3038 3038 3037 3037 3036 3036 3035 3036 3036 3036 3036 3036 3036 3036 3037 3037 3036 3037 3037 3038 3038 3038 3038 3038 3038 3038 3037 3037 3037 3037 3038 3038 3037 3037 3037 3036 3035 3035 3034 3033 3033 3032 3032 3031 3031 3030 3029 3029 3028 3028 3027 3027 3027 3027 3027 3026 3026 3026 3026 3025 3024 3023 3022 3021 3021 3020
3020 3021 3022 3022 3023 3023 3024 3025 3026 3027 3029 3030 3031 3031 3032 3033 3033 3034 3034 3035 3035 3035 3035 3034 3034 3033 3033 3033 3032 3032 3033 3034 3035 3035 3034 3034 3034 3034 3035 3035 3035 3035 3035 3035 3034 3034 3034 3034 3034 3034 3034 3034 3034 3033 3032 3032 3031 3031 3030 3030 3029 3029 3028 3028 3027 3027 3026 3026 3025 3025 3025 3025 3025 3024 3024 3024 3024 3024 3023 3023 3022 3021 3020 3019 3018